Regional Weather Roundup
Issued by NWS Northern Indiana

Home | Current Version | Previous Version | Graphics & Text | Print | Product List | Glossary On
Versions: 1 2 3 4 5 6 7 8 9 10 11 12 13 14 15 16 17 18 19 20 21 22 23 24 25 26 27 28 29 30 31 32 33 34 35 36 37 38 39 40 41 42 43 44 45 46 47 48 49 50
000
ASUS43 KIWX 242310
RWRIWX

KIWX WEATHER ROUNDUP
NATIONAL WEATHER SERVICE NORTHERN INDIANA
600 PM EST WED DEC 24 2014

NOTE: "FAIR" INDICATES FEW OR NO CLOUDS BELOW 12,000 FEET WITH NO
SIGNIFICANT WEATHER AND/OR OBSTRUCTIONS TO VISIBILITY.

* THESE STATIONS ARE NOT UNDER NWS QUALITY CONTROL. THEY ALSO MAY NOT
  REPORT WEATHER SUCH AS PRECIPITATION OR FOG.

INZ001>027-250000-
NORTHERN INDIANA

CITY           SKY/WX    TMP DP  RH WIND       PRES   REMARKS
GARY*          RAIN      39  34  81 W14       29.51S
VALPARAISO     LGT RAIN  36  35  96 W9        29.51R
MICHIGAN CITY* LGT RAIN  36  34  93 W7        29.50R
LAPORTE*       LGT RAIN  37  37 100 W7        29.50R
KNOX*          CLOUDY    36  32  85 W15       29.50R
SOUTH BEND     LGT RAIN  36  33  89 W10       29.48R
GOSHEN         FLURRIES  35  33  92 W13       29.46R WCI  26
MONTICELLO*    LGT RAIN  36  35  96 W12G17    29.54R
LOGANSPORT*    DRIZZLE   36  34  93 W12       29.54
ROCHESTER*     LGT RAIN  37  37 100 W10G17    29.50R
WARSAW*        LGT RAIN  34  34 100 W10G22    29.47R WCI  26
ANGOLA*        CLOUDY    36  34  93 W8        29.40R
FORT WAYNE     LGT RAIN  38  35  89 W24G33    29.46R
HUNTINGTON*    CLOUDY    37  36  96 W17G24    29.48R
PERU/GRISSOM   LGT RAIN  37  37 100 W20       29.51R
MARION*        CLOUDY    37  36  95 W21G28    29.52R FOG

$$
INZ028>050-250000-
CENTRAL INDIANA

CITY           SKY/WX    TMP DP  RH WIND       PRES   REMARKS
LAFAYETTE      LGT RAIN  35  34  96 W9        29.56R WCI  28
KOKOMO*        CLOUDY    37  34  87 W21G28    29.53R
MUNCIE*        LGT RAIN  38  36  92 W20G31    29.51R
INDIANAPOLIS   FLURRIES  35  34  96 W14       29.58R WCI  26

$$
MIZ043>046-050>051-056>058-064>065-071>073-077>080-250000-
SOUTHWEST LOWER MICHIGAN

CITY           SKY/WX    TMP DP  RH WIND       PRES   REMARKS
BATTLE CREEK   FLURRIES  34  32  92 W12       29.37F WCI  25
BENTON HARBOR  LGT RAIN  36  35  96 W13G22    29.47R FOG
COLDWATER*     FLURRIES  34  34  98 W16       29.38R WCI  24
HILLSDALE*     DRIZZLE   38  38 100 NW15      29.33S
HOLLAND        LGT RAIN  39  36  89 W3        29.44S
GRAND RAPIDS   FLURRIES  35  33  92 NW8       29.40S WCI  29
KALAMAZOO      FLURRIES  36  33  89 W14G22    29.40R
STURGIS*       MIX PCPN  36  34  93 W13       29.41R
THREE RIVERS*  FLURRIES  35  33  93 W14       29.42S WCI  26

$$
OHZ001>008-015>018-024>025-250000-
NORTHWEST OHIO

CITY           SKY/WX    TMP DP  RH WIND       PRES   REMARKS
WAUSEON*       DRIZZLE   41  41 100 W13       29.31R
DEFIANCE       CLOUDY    41  38  89 W9        29.37R
FINDLAY        LGT RAIN  43  41  93 W21       29.31R
TOLEDO EXPRESS RAIN      41  40  96 W12G23    29.30R
TOLEDO METCALF LGT RAIN  44  42  93 W15       29.30R
LIMA           CLOUDY    43  39  86 W25G37    29.39R

$$
AND FOR LAKE MICHIGAN COASTAL AND OPEN LAKE BUOY OBSERVATIONS

STATION/POSITION TEMP    WIND        PRES    VSBY  WAVE
                 AIR SEA DIR/SP/G                  HT/PER
                 (F)     (DEG/KT/KT) (MB)    (MI)  (FT/S)
CALUMET HARBOR    38     250/  8/ 13  998.2R
MICHIGAN CITY     36     230/ 18/ 20   N/A
SAINT JOSEPH      37     250/ 13/ 17  998.6S

$$
&&


USA.gov is the U.S. government's official web portal to all federal, state and local government web resources and services.